Location: Greenhawk Observatory
(37.3417°N, 122.0298°W)
Time: 05:16:04
(UTC-07:00)

N. Korean satellite - Visible Passes

Search period start: 23 September 2018 00:00
Search period end: 03 October 2018 00:00
Orbit: 458 x 511 km, 97.2° (Epoch: 22 September)

Date Brightness Start Highest point End Pass type
(mag) Time Alt. Az. Time Alt. Az. Time Alt. Az.
23 Sep 10.1 19:51:27 10° WSW 19:52:59 12° W 19:54:32 10° WNW visible
24 Sep 9.2 19:25:32 10° SSW 19:28:29 25° W 19:31:30 10° NW visible
26 Sep 10.3 06:30:46 10° ENE 06:32:43 14° E 06:34:38 10° SE visible
27 Sep 10.0 19:47:05 10° SW 19:49:00 14° W 19:50:58 10° WNW visible
28 Sep 9.0 19:21:25 10° SSW 19:24:31 29° W 19:27:41 10° NW visible
30 Sep 10.5 06:27:11 10° ENE 06:28:44 12° E 06:30:18 10° ESE visible
01 Oct 9.9 19:42:45 10° SW 19:45:01 16° W 19:47:18 10° NW visible
02 Oct 8.7 19:17:17 10° SSW 19:20:31 32° W 19:23:50 10° NNW visible
